Location: Unspecified
(0.0000°N, 0.0000°E)
Time: 18:58:47
(UTC+00:00)

deb OV3-4 - Pass Details

Date: 18 April 2026
Orbit: 581 x 4210 km, 40.6° (Epoch: 13 May)

Event Time Altitude Azimuth Distance (km) Brightness Sun altitude
Rises 05:12:06 0° 203° (SSW) 4,050 ? -11.6°
Reaches altitude 10° 05:14:38 10° 193° (SSW) 3,422 ? -11.0°
Maximum altitude 05:22:54 36° 128° (SE) 2,915 ? -9.0°
Drops below altitude 10° 05:37:42 10° 68° (ENE) 6,147 ? -5.3°
Sets 05:44:12 0° 62° (ENE) 7,697 ? -3.7°
